{"data":{"norad_id":61218,"epoch":"2026-05-24T16:26:44.725632Z","epoch_age_seconds":102482,"freshness":"FRESH","line1":"1 61218U 24171U   26144.68523988 -.00000168  00000+0  64649-5 0  9998","line2":"2 61218  53.1607 329.4600 0001154  99.8177 260.2954 15.30191761 94913","mean_motion":15.30191761,"eccentricity":0.0001154,"inclination_deg":53.1607,"raan_deg":329.46,"arg_perigee_deg":99.8177,"mean_anomaly_deg":260.2954,"bstar":6.4649e-6,"rev_number":9491,"period_min":94.105852397149,"perigee_km":474.44879003093,"apogee_km":476.0305493663,"semimajor_km":6853.3766696986,"source":"CELESTRAK","updated_at":"2026-05-25T13:38:19.362802Z"}}